Location: East Arcadia
(34.1056°N, 118.0176°W)
Time: 00:17:50
(UTC+00:00)

CZ-2C R/B - Pass Details

Date: 01 April 2023
Orbit: 784 x 869 km, 98.3° (Epoch: 08 June)

Event Time Altitude Azimuth Distance (km) Brightness Sun altitude
Exits shadow 12:11:17 29° 225° (SW) 1,542 3.6 -18.6°
Maximum altitude 12:13:08 36° 262° (W) 1,335 3.2 -18.3°
Drops below altitude 10° 12:18:12 10° 328° (NNW) 2,487 5.0 -17.3°
Sets 12:20:46 0° 337° (NNW) 3,414 5.8 -16.8°
